#timestamp,LO_Frequency,Hit,StdDev 
1648994415.7,286046993.2,N
1648994435.5,286046994.0,N
1648994455.3,286046993.8,N
1648994475.2,286046995.7,N
1648994495.0,286046998.0,N
1648994495.9,286046998.0,N
1648994515.8,286046997.8,N
1648994535.6,286046997.2,N
1648994555.4,286046997.2,N
1648994575.3,286046998.4,N
1648994595.1,286046995.0,N
1648994615.8,286047000.9,N
1648994635.7,286047005.6,N
1648994655.5,286047003.0,N
1648994675.4,286046998.3,N
1648994695.2,286047001.7,N
1648994715.0,286047002.1,N
1648994715.9,286047002.1,N
1648994735.8,286047003.6,N
1648994755.6,286047005.2,N
1648994775.4,286047004.0,N
1648994795.3,286047007.9,N
1648994815.1,286047006.8,N
1648994835.9,286047008.9,N
1648994855.7,286047010.8,N
1648994875.5,286047008.8,N
1648994895.4,286047008.7,N
1648994915.2,286047006.7,N
1648994935.0,286047008.3,N
1648994935.9,286047008.3,N
1648994955.8,286047011.6,N
1648994975.6,286047007.7,N
1648994995.5,286047007.2,N
1648995015.3,286047011.9,N
1648995035.1,286047012.4,N
1648995055.9,286047011.1,N
1648995075.7,286047014.3,N
1648995095.5,286047015.0,N
1648995115.4,286047011.9,N
1648995135.2,286047009.4,N
1648995155.1,286047011.2,N
1648995156.0,286047011.2,N
1648995175.8,286047011.6,N
1648995195.6,286047010.9,N
1648995215.5,286047009.3,N
1648995235.3,286047009.1,N
1648995255.1,286047008.5,N
1648995275.9,286047005.4,N
1648995295.7,286047005.2,N
1648995315.6,286047005.4,N
1648995335.4,286047002.9,N
1648995355.2,286047003.6,N
1648995375.1,286047005.7,N
1648995376.0,286047005.7,N
1648995395.8,286047009.0,Y
1648995415.6,286047000.4,P
1648995435.5,286047002.8,N
1648995455.3,286046999.8,N
1648995475.2,286047006.9,N
1648995495.9,286047004.5,N
1648995515.7,286047006.3,N
1648995535.6,286047006.3,N
1648995555.4,286047000.9,N
1648995575.2,286046999.6,N
1648995595.1,286046996.5,N
1648995596.0,286046996.5,N
1648995615.8,286046999.5,N
1648995635.7,286046997.5,N
1648995655.5,286047000.0,N
1648995675.3,286046999.0,N
1648995695.2,286046997.8,N
1648995715.0,286046998.1,N
1648995715.9,286046998.1,N
1648995735.8,286046998.1,N
1648995755.6,286047000.0,N
1648995775.4,286047001.8,N
1648995795.3,286047004.0,N
1648995815.1,286047001.4,N
1648995835.8,286047006.0,N
1648995855.7,286047004.6,N
1648995875.5,286047006.1,N
1648995895.4,286047004.5,N
1648995915.2,286047006.1,N
1648995935.0,286047004.9,N
1648995935.9,286047004.9,N
1648995955.8,286047007.6,N
1648995975.6,286047007.3,N
1648995995.5,286047003.9,N
1648996015.3,286047004.6,N
1648996035.1,286047008.5,N
1648996055.9,286047009.5,N
1648996075.7,286047012.0,Y
1648996095.5,286047006.6,P
1648996115.4,286047005.5,N
1648996135.2,286047003.6,N
1648996155.1,286047003.8,N
1648996156.0,286047003.8,N
1648996175.8,286047002.4,N
1648996195.6,286047000.5,N
1648996215.5,286047004.2,N
1648996235.3,286047002.4,N
1648996255.1,286047001.4,N
1648996275.9,286047003.2,N
1648996295.7,286047006.3,Y
1648996315.6,286047005.5,P
1648996335.4,286047005.8,P
1648996355.2,286047005.1,P
1648996375.1,286047007.1,Y
1648996376.0,286047007.1,P
1648996395.8,286046998.1,N
1648996415.6,286046996.6,N
1648996435.5,286046995.1,N
1648996455.3,286046999.0,N
1648996475.2,286046999.2,N
1648996495.9,286046999.6,N
1648996515.7,286046996.6,N
1648996535.6,286046996.7,N
1648996555.4,286046999.4,N
1648996575.2,286046997.0,N
1648996595.1,286047001.1,N
1648996596.0,286047001.1,N
1648996615.8,286047000.9,N
1648996635.7,286047000.8,N
1648996655.5,286047002.7,N
1648996675.3,286047001.9,N
1648996695.2,286046996.5,N
1648996715.0,286046993.9,N
1648996715.9,286046993.9,N
1648996735.7,286046999.5,N
1648996755.6,286046997.7,N
1648996775.4,286046998.1,N
1648996795.3,286046998.2,N
1648996815.1,286046999.1,N
1648996816.0,286046999.1,N
1648996835.8,286046997.4,N
1648996855.7,286046994.5,N
1648996875.5,286046995.2,N
1648996895.3,286046996.0,N
1648996915.2,286046994.1,N
1648996935.0,286046992.2,Y
1648996935.9,286046992.2,P
1648996955.8,286046994.0,N
1648996975.6,286046994.0,N
1648996995.4,286046993.4,Y
1648997015.3,286046996.6,P
1648997035.1,286046998.1,N
1648997055.9,286046999.8,N
1648997075.7,286046998.5,N
1648997095.5,286047002.1,N
1648997115.4,286047002.5,N
1648997135.2,286047002.8,N
1648997155.0,286047001.2,N
1648997155.9,286047001.2,N
1648997175.8,286046999.1,N
1648997195.6,286046998.0,N
1648997215.5,286046997.1,N
1648997235.3,286046995.4,N
1648997255.1,286046999.6,N
1648997275.9,286046996.6,N
1648997295.7,286046999.9,N
1648997315.5,286047001.0,N
1648997335.4,286046996.6,N
1648997355.2,286047002.8,N
1648997375.1,286047004.2,N
1648997376.0,286047004.2,N
1648997395.8,286047002.2,N
1648997415.6,286047000.3,N
1648997435.5,286047000.8,N
1648997455.3,286047000.9,N
1648997475.1,286047006.0,N
1648997495.9,286047001.9,N
1648997515.7,286047001.4,N
1648997535.5,286047001.4,N
1648997555.4,286047000.2,N
1648997575.2,286047000.7,N
1648997595.1,286046998.3,N
1648997596.0,286046998.3,N
1648997615.8,286047000.3,N
1648997635.6,286047002.4,N
1648997655.5,286047005.3,N
1648997675.3,286047003.2,N
1648997695.1,286047004.7,N
1648997715.9,286047007.1,N
1648997735.7,286047008.5,N
1648997755.6,286047006.2,N
1648997775.4,286047006.9,N
1648997795.2,286047008.1,N
1648997815.1,286047008.9,N
1648997816.0,286047008.9,N
1648997835.8,286047007.1,N
1648997855.7,286047007.3,N
1648997875.5,286047004.5,N
1648997895.3,286047005.8,N
1648997915.2,286047005.2,N
1648997935.9,286047005.9,N
1648997955.7,286047004.0,N
1648997975.6,286047003.5,N
1648997995.4,286047003.1,N
